Location: N�rnberg
(49.4489°N, 11.0797°E)
Time: 16:34:35
(UTC+02:00)

ISS - Visible Passes

Search period start: 09 May 2021 00:00
Search period end: 19 May 2021 00:00
Orbit: 418 x 421 km, 51.6° (Epoch: 09 May)

Date Brightness Start Highest point End Pass type
(mag) Time Alt. Az. Time Alt. Az. Time Alt. Az.
09 May -2.3 02:03:26 32° E 02:03:26 32° E 02:05:23 10° ENE visible
09 May -3.2 03:36:22 16° W 03:38:56 57° N 03:42:18 10° ENE visible
10 May -1.1 01:17:26 13° ENE 01:17:26 13° ENE 01:17:55 10° ENE visible
10 May -3.3 02:50:22 38° WNW 02:51:27 61° N 02:54:49 10° ENE visible
10 May -3.4 04:25:06 10° WNW 04:28:28 70° NNE 04:31:52 10° E visible
11 May -3.3 02:04:20 62° NE 02:04:20 62° NE 02:07:21 10° ENE visible
11 May -3.2 03:37:38 10° WNW 03:41:00 61° N 03:44:21 10° E visible
12 May -2.0 01:18:15 26° ENE 01:18:15 26° ENE 01:19:53 10° ENE visible
12 May -3.1 02:51:10 18° WNW 02:53:30 57° N 02:56:50 10° E visible
12 May -3.8 04:27:02 10° WNW 04:30:25 75° SSW 04:33:48 10° ESE visible
13 May -1.1 00:32:04 12° ENE 00:32:04 12° ENE 00:32:26 10° ENE visible
13 May -3.2 02:05:00 38° WNW 02:05:59 57° N 02:09:20 10° ENE visible
13 May -3.8 03:39:36 10° WNW 03:42:59 85° NNE 03:46:22 10° ESE visible
14 May -3.3 01:18:35 60° N 01:18:35 60° N 01:21:50 10° ENE visible
14 May -3.5 02:52:08 10° WNW 02:55:31 70° NNE 02:58:53 10° E visible
14 May -3.2 04:29:03 10° W 04:32:13 37° SSW 04:35:22 10° SE visible
14 May -3.3 22:51:08 10° SW 22:54:17 37° SSE 22:55:35 26° E visible
15 May -3.5 00:27:37 10° W 00:30:59 70° NNW 00:34:21 10° ENE visible
15 May -3.3 02:04:39 10° WNW 02:08:01 61° N 02:11:22 10° E visible
15 May -3.7 03:41:31 10° WNW 03:44:50 54° SSW 03:48:09 10° SE visible
15 May -2.7 22:04:06 10° SSW 22:06:56 26° SE 22:09:48 10° E visible
15 May -3.8 23:40:07 10° WSW 23:43:30 85° NNW 23:46:53 10° ENE visible
16 May -3.1 01:17:09 10° WNW 01:20:29 57° N 01:23:50 10° E visible
16 May -3.9 02:54:03 10° WNW 02:57:25 74° SSW 03:00:48 10° ESE visible
16 May -2.2 04:31:27 10° W 04:33:49 18° SW 04:36:10 10° S visible
16 May -3.9 22:52:41 10° WSW 22:56:02 74° SSE 22:59:25 10° ENE visible
17 May -3.1 00:29:37 10° W 00:32:58 57° N 00:36:19 10° ENE visible
17 May -3.8 02:06:35 10° WNW 02:09:58 85° NNE 02:13:21 10° ESE visible
17 May -2.8 03:43:39 10° W 03:46:31 26° SW 03:49:23 10° SSE visible
17 May -3.7 22:05:20 10° SW 22:08:37 53° SSE 22:11:56 10° ENE visible
17 May -3.3 23:42:06 10° W 23:45:27 61° N 23:48:48 10° ENE visible
18 May -3.5 01:19:06 10° WNW 01:22:29 70° NNE 01:22:50 62° ENE visible
18 May -3.5 22:54:34 10° W 22:57:56 70° NNW 23:01:18 10° ENE visible
